SCP
0 0 0 0 0 0 0 0 0 0 0 0 0 0 0 0 0 0 0 0 0 0 0 0 0 0 0 0 0 0 0 0 0 0 0 0 0 0 0 0 0 0 0
0 0 0 0 0 0 0 0 0 0 0 0 -0 0 0 0 0 0 0 0 0 0 0 0 0 0 0 0 0 0 0 0 0 0 0 0 0 0 0 0 0 0 0
0 0 0 0 0 0 0 0 0 0 0 0 -0 0 0 0 0 0 0 0 0 0 0 0 0 0 0 0 0 0 0 0 0 0 0 0 0 0 0 0 0 0 0
0 0 0 0 0 0 0 0 -0 0 0 0 0 0 -0 0 0 0 0 0 0 0 0 0 0 0 0 0 0 0 0 0 0 0 0 -0 -0 0 -0 -0 -0 -0 -0
0 0 0 0 0 0 -0 0 0 0 0 0 0 0 0 0 0 0 0 0 0 -0 -0 0 0 0 0 0 0 0 0 0 0 0 0 -0 -0 -0 -0 -0 -0 -0 -0
0 0 0 0 0 -0 -0 0 0 0 0 0 0 0 0 0 0 0 0 0 0 0 -0 -0 -0 -0 0 0 0 0 0 -0 -0 -0 -0 -0 -0 -0 -0 -0 0 0 0
0 0 0 0 0 0 0 0 0 0 0 -0 -0 0 0 0 0 0 0 0 0 0 0 0 0 0 0 0 0 0 0 0 0 0 0 -0 0 -0 -0 -0 0 0 0
0 0 0 0 0 0 0 0 0 -0 0 0 0 0 -0 0 0 0 0 0 0 0 0 0 0 0 0 0 0 0 0 0 0 0 0 0 0 -0 -0 0 0 0 0
0 0 0 0 0 0 0 0 0 -0 0 0 0 0 0 0 0 0 0 0 0 0 0 0 0 0 0 0 0 0 0 0 0 0 0 0 0 -0 0 0 0 0 0
0 0 0 0 0 0 0 0 0 0 -0 0 0 0 0 0 0 0 0 0 0 0 0 0 0 0 0 0 0 0 0 0 0 0 0 0 0 0 0 0 0 0 0
0 0 0 0 0 0 0 0 0 0 0 0 0 0 0 0 0 0 0 0 0 0 0 0 0 0 0 0 0 0 0 0 0 0 0 0 0 0 0 0 0 0 0
0 0 0 0 -0 -0 0 -0 0 0 0 -0 -0 -0 0 0 0 0 0 0 0 0 0 0 0 0 0 0 0 0 0 0 0 0 0 0 0 0 0 0 0 0 0
0 0 -0 0 0 -0 -0 -0 0 0 -0 0 -0 0 0 0 0 0 0 0 0 0 0 0 0 0 0 0 0 0 0 0 0 0 0 0 0 0 0 0 0 0 0
0 0 -0 -0 -0 0 0 -0 -0 -0 -0 0 -0 -0 -0 0 0 0 0 0 0 0 0 0 0 0 0 0 0 0 0 0 0 0 0 0 0 0 0 0 0 0 0
0 -0 0 -0 -0 0 0 0 0 -0 -0 -0 0 0 -0 -0 0 0 0 0 0 0 0 0 0 0 0 0 0 0 0 0 0 0 0 0 0 0 0 0 0 0 0
-0 -0 -0 0 -0 -0 0 0 0 0 0 -0 -0 0 -0 -0 0 0 0 0 0 0 0 0 0 0 0 0 0 0 0 0 0 0 0 0 0 0 0 0 0 0 0
0 -0 -0 -0 -0 -0 0 0 -0 -0 0 0 0 0 0 0 -0 0 0 0 0 0 0 0 0 0 0 0 0 0 0 0 0 0 0 0 0 0 0 0 0 0 0
0 0 0 -0 -0 -0 -0 0 0 -0 -0 0 0 0 0 0 0 0 0 -0 -0 -0 0 0 0 0 0 0 0 0 0 0 0 0 0 0 0 0 0 0 0 0 0
0 0 0 0 -0 -0 -0 -0 0 0 0 -0 0 0 0 0 0 0 0 0 -0 -0 -0 0 0 0 0 0 0 0 0 0 0 0 0 0 0 0 0 0 0 0 0
0 0 0 0 0 -0 -0 -0 -0 0 0 0 -0 -0 -0 0 0 0 0 -0 0 0 -0 -0 0 0 0 0 0 0 0 0 0 0 0 0 0 0 0 0 0 0 0
0 0 0 0 -0 -0 -0 -0 -0 -0 0 -0 -0 -0 -0 -0 -0 -0 0 0 -0 -0 0 0 0 0 0 0 0 0 0 0 0 0 0 0 0 0 0 0 0 0 0
0 0 0 0 0 0 0 -0 -0 0 -0 -0 0 -0 -0 -0 -0 -0 -0 -0 -0 0 0 0 0 0 0 0 0 0 0 0 0 0 0 0 0 0 0 0 0 0 0
0 0 0 0 0 0 -0 -0 -0 -0 0 0 -0 0 -0 -0 -0 -0 -0 -0 -0 -0 -0 0 0 0 0 1 1 0 0 0 0 1 0 0 0 0 0 0 0 0 0
0 0 0 0 0 0 0 -0 -0 -0 -0 -0 -0 -0 -0 -0 0 0 0 0 0 0 0 0 1 0 1 1 2 2 1 1 0 0 0 0 0 0 0 0 0 0 0
0 0 0 0 0 0 0 0 0 -0 -0 -0 0 0 0 0 0 0 1 0 0 0 1 0 0 0 0 0 0 2 1 0 0 0 0 0 0 0 0 0 0 0 0
0 0 0 0 0 0 0 0 -0 -0 -0 0 0 0 0 0 1 1 1 1 1 1 1 2 2 0 0 0 0 0 1 2 1 0 1 0 0 0 0 0 0 0 0
Wind_Speed_500mb
16 15 10 10 17 14 13 22 19 16 12 8 12 9 10 8 11 9 11 12 13 12 11 9 6 7 6 6 5 4 3 2 4 6 6 6 8 10 11 11 13 15 17
14 14 12 12 11 13 11 14 15 17 14 20 22 18 12 13 13 16 15 10 12 11 8 6 5 5 4 2 1 1 1 1 4 5 6 9 10 11 12 13 14 15 17
17 17 13 12 12 16 14 11 17 23 19 21 19 17 15 14 15 18 19 14 8 8 6 5 4 2 2 2 3 3 3 2 2 4 6 7 10 12 12 13 14 16 18
14 15 14 15 15 17 15 13 22 22 19 14 16 15 17 17 15 17 16 12 11 7 4 1 2 1 1 3 6 7 5 5 7 8 10 12 13 13 13 16 19 20 21
12 18 14 16 15 17 17 15 19 15 11 9 11 13 17 18 17 15 16 14 12 10 9 6 5 4 2 0 3 7 10 11 11 12 13 14 16 16 14 15 17 19 19
15 14 11 14 15 16 13 18 14 9 7 6 7 8 9 11 10 10 10 11 10 10 10 10 11 10 5 4 2 3 4 7 10 9 10 11 11 10 10 10 11 12 15
14 14 10 13 14 14 13 14 14 6 15 13 10 4 5 4 5 5 4 4 5 6 6 3 3 5 7 8 7 4 4 4 7 7 7 8 8 8 7 8 10 11 13
17 14 10 10 14 15 8 12 14 12 14 16 16 9 4 4 6 11 7 6 3 5 6 7 6 4 5 9 6 4 4 4 4 4 5 7 8 7 8 9 11 14 17
23 17 14 13 15 11 12 9 11 16 18 16 21 16 7 7 5 13 14 11 11 5 3 5 10 7 9 13 14 14 12 11 9 8 8 7 6 8 11 12 14 18 20
26 23 19 13 17 14 14 11 10 15 20 18 21 20 16 8 8 8 18 15 14 8 5 2 3 6 8 7 8 11 11 9 8 8 10 10 9 10 10 11 13 16 18
29 26 25 20 16 19 19 16 14 18 18 19 23 18 15 15 15 9 5 11 13 16 12 7 5 5 4 3 2 2 2 5 4 3 4 4 5 6 6 8 10 12 14
44 35 30 27 21 19 22 19 18 17 21 23 26 20 17 19 22 20 14 13 9 11 13 14 14 12 10 8 7 8 8 7 7 7 8 7 7 9 10 11 11 11 13
58 51 41 33 29 22 23 23 22 20 26 25 29 31 29 24 20 19 26 20 15 16 18 17 15 15 14 12 11 10 12 12 12 14 15 15 16 17 17 16 18 19 20
56 45 42 37 31 24 24 23 27 25 22 32 30 27 30 30 29 27 22 23 22 20 22 19 14 14 13 14 14 18 20 18 17 19 21 22 23 23 23 24 22 22 23
53 48 39 35 35 30 27 28 29 30 30 28 29 30 31 29 28 27 30 26 24 28 33 23 22 18 21 23 21 25 26 24 26 25 27 29 29 30 28 28 28 26 25
54 52 46 39 39 35 34 35 34 33 35 34 29 31 33 33 30 31 30 31 30 32 39 32 29 31 27 28 28 34 35 34 34 36 36 36 36 34 35 33 29 28 26
54 56 49 45 42 42 41 44 42 38 39 39 38 36 34 33 38 40 40 41 41 41 47 44 40 36 38 37 36 39 40 43 44 44 45 43 42 42 40 39 37 36 32
59 58 54 53 52 49 47 46 44 42 40 40 39 41 42 39 42 42 46 49 51 50 55 60 54 51 50 48 49 49 47 49 51 50 50 51 47 44 47 48 46 44 41
61 60 60 60 57 57 54 51 48 48 46 46 43 42 42 44 49 51 51 52 52 52 59 68 72 69 65 61 62 64 63 62 60 57 57 57 55 53 52 54 55 49 47
62 64 66 64 64 60 60 57 54 51 52 53 52 53 51 49 48 51 55 60 61 62 66 71 76 80 78 74 75 80 81 76 74 67 66 66 60 62 60 56 55 53 51
68 64 68 71 68 67 66 63 61 59 56 55 53 53 53 51 48 47 50 51 54 59 66 72 80 84 87 87 86 85 90 88 91 82 80 77 71 68 68 66 60 54 51
72 70 71 73 75 74 71 68 65 66 65 65 64 63 61 58 56 54 55 58 63 66 70 73 80 86 89 88 89 91 88 89 98 84 75 83 83 84 78 74 71 60 54
72 72 71 73 77 78 75 71 72 72 72 72 71 69 69 68 66 66 66 69 73 77 78 81 90 95 98 96 95 99 98 97 101 97 92 95 88 90 84 81 80 76 69
73 72 71 71 72 76 76 75 75 76 81 83 82 80 81 80 80 78 78 83 86 85 84 81 85 93 93 93 93 95 95 97 100 100 98 104 98 102 90 86 82 83 85
71 71 69 68 69 69 68 70 72 79 85 87 87 87 87 87 85 84 85 85 84 85 80 80 80 81 82 80 70 71 88 94 103 104 102 108 105 105 106 102 90 86 91
67 67 69 68 65 63 58 57 60 68 78 81 79 82 82 81 77 73 74 75 81 80 72 68 69 68 65 69 66 65 71 85 97 103 98 94 99 96 95 103 104 99 95
Wind_Direction_500mb
155 166 174 144 139 129 122 146 142 124 112 147 104 105 115 93 57 94 124 120 120 111 113 129 150 154 156 153 143 143 118 79 43 39 21 5 358 358 357 359 3 5 4
156 157 146 156 162 167 152 162 153 139 111 126 114 95 120 101 80 87 99 114 124 117 121 133 141 156 151 145 170 227 230 315 335 355 334 332 336 342 345 345 347 351 349
152 150 144 159 155 157 140 146 142 147 150 139 107 106 118 114 101 91 90 93 123 134 135 132 149 170 177 79 324 330 336 308 320 331 333 339 346 352 347 342 338 340 345
169 165 168 141 141 144 137 126 139 148 148 137 115 110 118 112 112 90 78 83 80 90 75 231 221 251 357 220 263 294 306 313 323 327 311 314 319 320 322 323 326 325 330
170 171 176 176 155 164 147 145 153 145 140 105 121 115 130 114 114 107 77 69 72 79 75 70 86 75 59 356 279 287 297 296 291 292 295 306 313 314 314 315 320 325 329
177 177 184 175 164 157 158 151 155 166 167 158 151 137 151 141 129 116 97 71 66 81 77 90 74 66 52 83 24 308 313 313 313 316 319 317 315 313 322 331 329 337 344
172 187 192 193 180 157 163 162 168 170 181 164 166 135 201 182 185 173 144 93 69 64 68 91 89 48 44 6 347 323 321 321 310 318 319 318 341 348 358 4 9 12 14
195 192 203 211 205 203 197 205 201 203 179 185 191 185 170 201 244 203 218 211 196 122 75 44 55 107 39 34 42 45 38 41 17 24 17 11 6 12 25 27 31 35 36
213 218 218 231 235 222 230 214 214 203 207 210 205 210 215 236 229 202 216 230 230 216 124 73 62 86 83 79 78 79 76 76 69 52 45 43 42 52 57 50 44 38 31
220 222 231 244 239 231 227 231 217 210 218 229 202 206 228 244 209 204 222 235 236 230 226 186 116 83 102 103 97 80 71 73 70 58 56 60 56 60 52 40 37 35 30
235 230 231 242 240 234 235 240 232 222 225 216 207 214 225 241 238 252 278 260 265 252 251 251 243 226 203 191 168 123 71 58 44 31 35 42 16 7 7 5 11 15 13
241 238 234 235 242 238 232 238 239 230 216 215 215 231 243 254 245 249 270 307 283 283 278 271 265 259 252 256 263 272 279 282 304 315 303 296 300 302 303 306 316 328 338
242 240 237 234 236 241 234 241 239 233 224 225 230 240 247 248 258 264 259 282 283 294 284 278 271 264 254 257 257 267 272 274 278 288 295 291 282 281 285 290 299 308 317
239 236 230 232 233 238 239 241 237 233 234 229 234 241 238 249 252 259 265 271 281 281 293 286 270 277 269 264 258 257 263 269 275 277 282 285 281 281 285 287 288 294 299
235 230 228 228 230 236 242 243 243 238 237 240 244 245 241 240 250 259 252 263 264 278 294 293 298 294 279 267 267 266 268 265 272 276 277 277 280 275 274 279 283 286 294
234 230 229 226 229 234 239 246 248 242 242 243 248 250 251 243 247 250 252 261 269 277 284 288 291 294 288 282 279 272 269 267 263 267 272 273 271 273 267 266 268 277 285
236 230 226 225 230 234 240 246 248 245 244 245 248 252 255 255 252 253 255 260 266 273 278 280 283 284 284 287 285 282 275 269 268 266 267 270 272 270 268 259 256 262 270
235 234 231 229 231 232 239 245 243 242 243 246 249 254 255 256 258 259 262 264 267 270 274 280 283 283 283 285 286 284 282 276 273 271 269 268 269 270 265 257 257 257 261
235 235 234 233 230 230 232 236 241 245 247 252 254 256 260 261 261 261 263 266 267 269 273 277 281 283 283 282 283 282 282 279 277 277 272 265 262 265 267 262 257 258 260
237 233 233 233 231 229 232 234 238 242 250 253 256 258 259 259 262 263 264 265 268 270 273 276 280 284 285 286 282 281 281 282 281 279 277 271 265 262 264 265 262 257 254
237 235 235 234 234 232 232 234 235 237 242 249 255 256 255 255 258 262 266 268 270 271 272 274 277 279 281 282 282 285 286 289 287 282 278 273 268 264 261 259 261 253 250
237 235 234 234 236 237 236 234 236 239 243 247 252 255 257 260 259 261 264 268 274 276 277 279 281 281 282 284 287 286 287 285 285 288 284 281 275 269 265 261 256 251 252
236 236 236 235 236 239 240 240 240 242 246 249 252 256 258 259 262 265 269 271 271 272 275 279 281 280 284 287 290 288 288 288 289 292 288 285 281 276 272 267 262 251 243
235 237 238 238 239 240 242 243 245 246 249 252 254 257 260 263 266 269 273 275 275 276 275 275 275 279 282 286 288 290 290 288 287 287 285 280 283 279 278 270 260 254 243
237 239 242 243 244 244 245 245 246 249 251 253 256 259 261 263 265 268 272 274 275 275 280 281 281 280 281 283 288 289 285 284 283 283 285 281 278 276 274 270 263 254 244
241 244 246 248 250 251 250 250 249 250 253 255 258 260 263 265 269 271 271 274 275 279 289 292 293 295 295 293 292 288 290 284 284 279 287 279 286 274 258 269 263 251 242
Wind_Speed_850mb
16 15 10 10 17 14 13 22 19 16 12 8 12 9 10 8 11 9 11 12 13 12 11 9 6 7 6 6 5 4 3 2 4 6 6 6 8 10 11 11 13 15 17
14 14 12 12 11 13 11 14 15 17 14 20 22 18 12 13 13 16 15 10 12 11 8 6 5 5 4 2 1 1 1 1 4 5 6 9 10 11 12 13 14 15 17
17 17 13 12 12 16 14 11 17 23 19 21 19 17 15 14 15 18 19 14 8 8 6 5 4 2 2 2 3 3 3 2 2 4 6 7 10 12 12 13 14 16 18
14 15 14 15 15 17 15 13 22 22 19 14 16 15 17 17 15 17 16 12 11 7 4 1 2 1 1 3 6 7 5 5 7 8 10 12 13 13 13 16 19 20 21
12 18 14 16 15 17 17 15 19 15 11 9 11 13 17 18 17 15 16 14 12 10 9 6 5 4 2 0 3 7 10 11 11 12 13 14 16 16 14 15 17 19 19
15 14 11 14 15 16 13 18 14 9 7 6 7 8 9 11 10 10 10 11 10 10 10 10 11 10 5 4 2 3 4 7 10 9 10 11 11 10 10 10 11 12 15
14 14 10 13 14 14 13 14 14 6 15 13 10 4 5 4 5 5 4 4 5 6 6 3 3 5 7 8 7 4 4 4 7 7 7 8 8 8 7 8 10 11 13
17 14 10 10 14 15 8 12 14 12 14 16 16 9 4 4 6 11 7 6 3 5 6 7 6 4 5 9 6 4 4 4 4 4 5 7 8 7 8 9 11 14 17
23 17 14 13 15 11 12 9 11 16 18 16 21 16 7 7 5 13 14 11 11 5 3 5 10 7 9 13 14 14 12 11 9 8 8 7 6 8 11 12 14 18 20
26 23 19 13 17 14 14 11 10 15 20 18 21 20 16 8 8 8 18 15 14 8 5 2 3 6 8 7 8 11 11 9 8 8 10 10 9 10 10 11 13 16 18
29 26 25 20 16 19 19 16 14 18 18 19 23 18 15 15 15 9 5 11 13 16 12 7 5 5 4 3 2 2 2 5 4 3 4 4 5 6 6 8 10 12 14
44 35 30 27 21 19 22 19 18 17 21 23 26 20 17 19 22 20 14 13 9 11 13 14 14 12 10 8 7 8 8 7 7 7 8 7 7 9 10 11 11 11 13
58 51 41 33 29 22 23 23 22 20 26 25 29 31 29 24 20 19 26 20 15 16 18 17 15 15 14 12 11 10 12 12 12 14 15 15 16 17 17 16 18 19 20
56 45 42 37 31 24 24 23 27 25 22 32 30 27 30 30 29 27 22 23 22 20 22 19 14 14 13 14 14 18 20 18 17 19 21 22 23 23 23 24 22 22 23
53 48 39 35 35 30 27 28 29 30 30 28 29 30 31 29 28 27 30 26 24 28 33 23 22 18 21 23 21 25 26 24 26 25 27 29 29 30 28 28 28 26 25
54 52 46 39 39 35 34 35 34 33 35 34 29 31 33 33 30 31 30 31 30 32 39 32 29 31 27 28 28 34 35 34 34 36 36 36 36 34 35 33 29 28 26
54 56 49 45 42 42 41 44 42 38 39 39 38 36 34 33 38 40 40 41 41 41 47 44 40 36 38 37 36 39 40 43 44 44 45 43 42 42 40 39 37 36 32
59 58 54 53 52 49 47 46 44 42 40 40 39 41 42 39 42 42 46 49 51 50 55 60 54 51 50 48 49 49 47 49 51 50 50 51 47 44 47 48 46 44 41
61 60 60 60 57 57 54 51 48 48 46 46 43 42 42 44 49 51 51 52 52 52 59 68 72 69 65 61 62 64 63 62 60 57 57 57 55 53 52 54 55 49 47
62 64 66 64 64 60 60 57 54 51 52 53 52 53 51 49 48 51 55 60 61 62 66 71 76 80 78 74 75 80 81 76 74 67 66 66 60 62 60 56 55 53 51
68 64 68 71 68 67 66 63 61 59 56 55 53 53 53 51 48 47 50 51 54 59 66 72 80 84 87 87 86 85 90 88 91 82 80 77 71 68 68 66 60 54 51
72 70 71 73 75 74 71 68 65 66 65 65 64 63 61 58 56 54 55 58 63 66 70 73 80 86 89 88 89 91 88 89 98 84 75 83 83 84 78 74 71 60 54
72 72 71 73 77 78 75 71 72 72 72 72 71 69 69 68 66 66 66 69 73 77 78 81 90 95 98 96 95 99 98 97 101 97 92 95 88 90 84 81 80 76 69
73 72 71 71 72 76 76 75 75 76 81 83 82 80 81 80 80 78 78 83 86 85 84 81 85 93 93 93 93 95 95 97 100 100 98 104 98 102 90 86 82 83 85
71 71 69 68 69 69 68 70 72 79 85 87 87 87 87 87 85 84 85 85 84 85 80 80 80 81 82 80 70 71 88 94 103 104 102 108 105 105 106 102 90 86 91
67 67 69 68 65 63 58 57 60 68 78 81 79 82 82 81 77 73 74 75 81 80 72 68 69 68 65 69 66 65 71 85 97 103 98 94 99 96 95 103 104 99 95
Wind_Direction_850mb
155 166 174 144 139 129 122 146 142 124 112 147 104 105 115 93 57 94 124 120 120 111 113 129 150 154 156 153 143 143 118 79 43 39 21 5 358 358 357 359 3 5 4
156 157 146 156 162 167 152 162 153 139 111 126 114 95 120 101 80 87 99 114 124 117 121 133 141 156 151 145 170 227 230 315 335 355 334 332 336 342 345 345 347 351 349
152 150 144 159 155 157 140 146 142 147 150 139 107 106 118 114 101 91 90 93 123 134 135 132 149 170 177 79 324 330 336 308 320 331 333 339 346 352 347 342 338 340 345
169 165 168 141 141 144 137 126 139 148 148 137 115 110 118 112 112 90 78 83 80 90 75 231 221 251 357 220 263 294 306 313 323 327 311 314 319 320 322 323 326 325 330
170 171 176 176 155 164 147 145 153 145 140 105 121 115 130 114 114 107 77 69 72 79 75 70 86 75 59 356 279 287 297 296 291 292 295 306 313 314 314 315 320 325 329
177 177 184 175 164 157 158 151 155 166 167 158 151 137 151 141 129 116 97 71 66 81 77 90 74 66 52 83 24 308 313 313 313 316 319 317 315 313 322 331 329 337 344
172 187 192 193 180 157 163 162 168 170 181 164 166 135 201 182 185 173 144 93 69 64 68 91 89 48 44 6 347 323 321 321 310 318 319 318 341 348 358 4 9 12 14
195 192 203 211 205 203 197 205 201 203 179 185 191 185 170 201 244 203 218 211 196 122 75 44 55 107 39 34 42 45 38 41 17 24 17 11 6 12 25 27 31 35 36
213 218 218 231 235 222 230 214 214 203 207 210 205 210 215 236 229 202 216 230 230 216 124 73 62 86 83 79 78 79 76 76 69 52 45 43 42 52 57 50 44 38 31
220 222 231 244 239 231 227 231 217 210 218 229 202 206 228 244 209 204 222 235 236 230 226 186 116 83 102 103 97 80 71 73 70 58 56 60 56 60 52 40 37 35 30
235 230 231 242 240 234 235 240 232 222 225 216 207 214 225 241 238 252 278 260 265 252 251 251 243 226 203 191 168 123 71 58 44 31 35 42 16 7 7 5 11 15 13
241 238 234 235 242 238 232 238 239 230 216 215 215 231 243 254 245 249 270 307 283 283 278 271 265 259 252 256 263 272 279 282 304 315 303 296 300 302 303 306 316 328 338
242 240 237 234 236 241 234 241 239 233 224 225 230 240 247 248 258 264 259 282 283 294 284 278 271 264 254 257 257 267 272 274 278 288 295 291 282 281 285 290 299 308 317
239 236 230 232 233 238 239 241 237 233 234 229 234 241 238 249 252 259 265 271 281 281 293 286 270 277 269 264 258 257 263 269 275 277 282 285 281 281 285 287 288 294 299
235 230 228 228 230 236 242 243 243 238 237 240 244 245 241 240 250 259 252 263 264 278 294 293 298 294 279 267 267 266 268 265 272 276 277 277 280 275 274 279 283 286 294
234 230 229 226 229 234 239 246 248 242 242 243 248 250 251 243 247 250 252 261 269 277 284 288 291 294 288 282 279 272 269 267 263 267 272 273 271 273 267 266 268 277 285
236 230 226 225 230 234 240 246 248 245 244 245 248 252 255 255 252 253 255 260 266 273 278 280 283 284 284 287 285 282 275 269 268 266 267 270 272 270 268 259 256 262 270
235 234 231 229 231 232 239 245 243 242 243 246 249 254 255 256 258 259 262 264 267 270 274 280 283 283 283 285 286 284 282 276 273 271 269 268 269 270 265 257 257 257 261
235 235 234 233 230 230 232 236 241 245 247 252 254 256 260 261 261 261 263 266 267 269 273 277 281 283 283 282 283 282 282 279 277 277 272 265 262 265 267 262 257 258 260
237 233 233 233 231 229 232 234 238 242 250 253 256 258 259 259 262 263 264 265 268 270 273 276 280 284 285 286 282 281 281 282 281 279 277 271 265 262 264 265 262 257 254
237 235 235 234 234 232 232 234 235 237 242 249 255 256 255 255 258 262 266 268 270 271 272 274 277 279 281 282 282 285 286 289 287 282 278 273 268 264 261 259 261 253 250
237 235 234 234 236 237 236 234 236 239 243 247 252 255 257 260 259 261 264 268 274 276 277 279 281 281 282 284 287 286 287 285 285 288 284 281 275 269 265 261 256 251 252
236 236 236 235 236 239 240 240 240 242 246 249 252 256 258 259 262 265 269 271 271 272 275 279 281 280 284 287 290 288 288 288 289 292 288 285 281 276 272 267 262 251 243
235 237 238 238 239 240 242 243 245 246 249 252 254 257 260 263 266 269 273 275 275 276 275 275 275 279 282 286 288 290 290 288 287 287 285 280 283 279 278 270 260 254 243
237 239 242 243 244 244 245 245 246 249 251 253 256 259 261 263 265 268 272 274 275 275 280 281 281 280 281 283 288 289 285 284 283 283 285 281 278 276 274 270 263 254 244
241 244 246 248 250 251 250 250 249 250 253 255 258 260 263 265 269 271 271 274 275 279 289 292 293 295 295 293 292 288 290 284 284 279 287 279 286 274 258 269 263 251 242